This is the latest recevied weather packets stored in our database for station/object W7WSW. If no packets are shown the sender has not sent any weather packets the latest 1 day(s).
| Time | Temp. | Humidity | Pressure | Rain* | Wind** | Luminosity | Snow |
|---|---|---|---|---|---|---|---|
| 1778077915 | 11.67° C | 81% | 1018.6 hPa | 0 mm | - | 23 W/m² | - |
| 1778077854 | 11.67° C | 81% | 1018.6 hPa | 0 mm | - | 23 W/m² | - |
| 1778077735 | 11.67° C | 81% | 1018.5 hPa | 0 mm | - | 26 W/m² | - |
| 1778077675 | 11.67° C | 81% | 1018.4 hPa | 0 mm | - | 26 W/m² | - |
| 1778077552 | 11.67° C | 81% | 1018.5 hPa | 0 mm | - | 23 W/m² | - |
| 1778077492 | 11.67° C | 81% | 1018.5 hPa | 0 mm | - | 21 W/m² | - |
| 1778077062 | 11.67° C | 81% | 1018.3 hPa | 0 mm | - | 21 W/m² | - |
| 1778076941 | 11.67° C | 81% | 1018.4 hPa | 0 mm | - | 21 W/m² | - |
| 1778076881 | 11.67° C | 81% | 1018.3 hPa | 0 mm | - | 19 W/m² | - |
| 1778076630 | 11.67° C | 81% | 1018.4 hPa | 0 mm | - | 18 W/m² | - |
| 1778076510 | 11.67° C | 81% | 1018.4 hPa | 0 mm | - | 16 W/m² | - |
| 1778076207 | 11.67° C | 81% | 1018.4 hPa | 0 mm | - | 14 W/m² | - |
| 1778075773 | 11.67° C | 81% | 1018.3 hPa | 0 mm | - | 12 W/m² | - |
| 1778075713 | 11.67° C | 81% | 1018.4 hPa | 0 mm | - | 11 W/m² | - |
| 1778075226 | 11.67° C | 81% | 1018.3 hPa | 0 mm | - | 11 W/m² | - |
| 1778074547 | 11.67° C | 81% | 1018.2 hPa | 0 mm | - | 7 W/m² | - |
| 1778074487 | 11.67° C | 81% | 1018.1 hPa | 0 mm | - | 7 W/m² | - |
| 1778074425 | 11.67° C | 81% | 1018.1 hPa | 0 mm | - | 7 W/m² | - |
| 1778074178 | 11.67° C | 81% | 1018 hPa | 0 mm | - | 5 W/m² | - |
| 1778073873 | 11.67° C | 81% | 1017.8 hPa | 0 mm | - | 5 W/m² | - |
| 1778073702 | 11.67° C | 81% | 1018 hPa | 0 mm | - | 5 W/m² | - |
| 1778073507 | 11.67° C | 81% | 1018 hPa | 0 mm | - | 0 W/m² | - |
| 1778073446 | 11.67° C | 81% | 1018 hPa | 0 mm | - | 0 W/m² | - |
| 1778073386 | 11.67° C | 81% | 1018 hPa | 0 mm | - | 0 W/m² | - |
| 1778073326 | 11.67° C | 81% | 1018 hPa | 0 mm | - | 0 W/m² | - |
* Rain latest hour (hover to see other rain measurements)
** Current wind speed in m/s (hover to see current wind gust speed)